,,,PA_Meas_PMT16A,,PR_Meas_QMR101_102,,RH_Meas_QMH101,,SR_Meas_QMS101,,TA_Meas_QMH101,,GenWind,,GenWind,
date,time,status,PA,status,PR,status,RH,status,SR,status,TA,status,DirAvg,status,SpdAvg,
2014-11-22, 00:00:04,VALID,1010.11,VALID,0,INVALID,120.662,VALID,0,VALID,23.4602,VALID,90,VALID,0,
2014-11-22, 00:01:04,VALID,1010.1,VALID,0,INVALID,120.693,VALID,0,VALID,23.462,VALID,90,VALID,0,
2014-11-22, 00:02:04,VALID,1010.06,VALID,0,INVALID,120.746,VALID,0,VALID,23.4212,VALID,90,VALID,0,
2014-11-22, 00:03:04,VALID,1010.02,VALID,0,INVALID,120.7,VALID,0,VALID,23.4212,VALID,90,VALID,0,
2014-11-22, 00:04:04,VALID,1010,VALID,0,INVALID,120.617,VALID,0,VALID,23.4407,VALID,90,VALID,0,
2014-11-22, 00:05:04,VALID,1009.97,VALID,0,INVALID,120.609,VALID,0,VALID,23.4425,VALID,90,VALID,0,
2014-11-22, 00:06:04,VALID,1009.94,VALID,0,INVALID,120.617,VALID,0,VALID,23.4407,VALID,90,VALID,0,
2014-11-22, 00:07:04,VALID,1009.97,VALID,0,INVALID,120.639,VALID,0,VALID,23.4212,VALID,90,VALID,0,
2014-11-22, 00:08:04,VALID,1009.95,VALID,0,INVALID,120.639,VALID,0,VALID,23.4212,VALID,90,VALID,0,
2014-11-22, 00:09:04,VALID,1009.94,VALID,0,INVALID,120.563,VALID,0,VALID,23.4212,VALID,90,VALID,0,
2014-11-22, 00:10:04,VALID,1009.92,VALID,0,INVALID,120.601,VALID,0,VALID,23.4017,VALID,90,VALID,0,
2014-11-22, 00:11:04,VALID,1009.91,VALID,0,INVALID,120.563,VALID,0,VALID,23.4017,VALID,90,VALID,0,
2014-11-22, 00:12:04,VALID,1009.89,VALID,0,INVALID,120.563,VALID,0,VALID,23.4212,VALID,90,VALID,0,
2014-11-22, 00:13:04,VALID,1009.87,VALID,0,INVALID,120.563,VALID,0,VALID,23.4035,VALID,90,VALID,0,
2014-11-22, 00:14:04,VALID,1009.85,VALID,0,INVALID,120.426,VALID,0,VALID,23.4017,VALID,90,VALID,0,
2014-11-22, 00:15:04,VALID,1009.81,VALID,0,INVALID,120.472,VALID,0,VALID,23.361,VALID,90,VALID,0,
2014-11-22, 00:16:04,VALID,1009.8,VALID,0,INVALID,120.517,VALID,0,VALID,23.3823,VALID,90,VALID,0,
2014-11-22, 00:17:04,VALID,1009.8,VALID,0,INVALID,120.472,VALID,0,VALID,23.3628,VALID,90,VALID,0,
2014-11-22, 00:18:04,VALID,1009.78,VALID,0,INVALID,120.418,VALID,0,VALID,23.3628,VALID,90,VALID,0,
2014-11-22, 00:19:04,VALID,1009.79,VALID,0,INVALID,120.418,VALID,0.112112,VALID,23.3628,VALID,90,VALID,0,
2014-11-22, 00:20:04,VALID,1009.77,VALID,0,INVALID,120.464,VALID,0,VALID,23.3433,VALID,90,VALID,0,
2014-11-22, 00:21:04,VALID,1009.77,VALID,0,INVALID,120.487,VALID,0,VALID,23.3238,VALID,90,VALID,0,
2014-11-22, 00:22:04,VALID,1009.77,VALID,0,INVALID,120.548,VALID,0,VALID,23.3043,VALID,90,VALID,0,
2014-11-22, 00:23:04,VALID,1009.75,VALID,0,INVALID,120.51,VALID,0,VALID,23.2848,VALID,90,VALID,0,
2014-11-22, 00:24:04,VALID,1009.76,VALID,0,INVALID,120.479,VALID,0,VALID,23.2654,VALID,90,VALID,0,
2014-11-22, 00:25:04,VALID,1009.75,VALID,0,INVALID,120.487,VALID,0,VALID,23.2654,VALID,90,VALID,0,
2014-11-22, 00:26:04,VALID,1009.76,VALID,0,INVALID,120.502,VALID,0,VALID,23.2264,VALID,90,VALID,0,
2014-11-22, 00:27:04,VALID,1009.77,VALID,0,INVALID,120.479,VALID,0,VALID,23.2264,VALID,90,VALID,0,
2014-11-22, 00:28:04,VALID,1009.79,VALID,0,INVALID,120.487,VALID,0,VALID,23.2069,VALID,90,VALID,0,
2014-11-22, 00:29:04,VALID,1009.79,VALID,0,INVALID,120.388,VALID,0,VALID,23.2051,VALID,90,VALID,0,
2014-11-22, 00:30:04,VALID,1009.77,VALID,0,INVALID,120.357,VALID,0,VALID,23.2069,VALID,90,VALID,0,
2014-11-22, 00:31:04,VALID,1009.78,VALID,0,INVALID,120.334,VALID,0,VALID,23.1874,VALID,90,VALID,0,
2014-11-22, 00:32:04,VALID,1009.78,VALID,0,INVALID,120.395,VALID,0,VALID,23.1679,VALID,90,VALID,0,
2014-11-22, 00:33:04,VALID,1009.75,VALID,0,INVALID,120.472,VALID,0,VALID,23.1272,VALID,90,VALID,0,
2014-11-22, 00:34:04,VALID,1009.77,VALID,0,INVALID,120.464,VALID,0,VALID,23.129,VALID,90,VALID,0,
2014-11-22, 00:35:04,VALID,1009.75,VALID,0,INVALID,120.38,VALID,0,VALID,23.129,VALID,90,VALID,0,
2014-11-22, 00:36:04,VALID,1009.76,VALID,0,INVALID,120.38,VALID,0,VALID,23.1095,VALID,90,VALID,0,
2014-11-22, 00:37:04,VALID,1009.76,VALID,0,INVALID,120.243,VALID,0,VALID,23.1095,VALID,90,VALID,0,
2014-11-22, 00:38:04,VALID,1009.74,VALID,0,INVALID,120.289,VALID,0,VALID,23.09,VALID,90,VALID,0,
2014-11-22, 00:39:04,VALID,1009.75,VALID,0,INVALID,120.243,VALID,0,VALID,23.09,VALID,90,VALID,0,
2014-11-22, 00:40:04,VALID,1009.74,VALID,0,INVALID,120.212,VALID,0,VALID,23.09,VALID,90,VALID,0,
2014-11-22, 00:41:04,VALID,1009.71,VALID,0,INVALID,120.197,VALID,0,VALID,23.09,VALID,90,VALID,0,
2014-11-22, 00:42:04,VALID,1009.7,VALID,0,INVALID,120.205,VALID,0,VALID,23.09,VALID,90,VALID,0,
2014-11-22, 00:43:04,VALID,1009.67,VALID,0,INVALID,120.167,VALID,0.112112,VALID,23.0705,VALID,90,VALID,0,
2014-11-22, 00:44:04,VALID,1009.66,VALID,0,INVALID,120.182,VALID,0,VALID,23.0705,VALID,90,VALID,0,
2014-11-22, 00:45:04,VALID,1009.63,VALID,0,INVALID,120.136,VALID,0,VALID,23.0705,VALID,90,VALID,0,
2014-11-22, 00:46:04,VALID,1009.63,VALID,0,INVALID,120.136,VALID,0.112112,VALID,23.0511,VALID,90,VALID,0,
2014-11-22, 00:47:04,VALID,1009.64,VALID,0,INVALID,120.128,VALID,0.112112,VALID,23.0511,VALID,90,VALID,0,
2014-11-22, 00:48:04,VALID,1009.6,VALID,0,INVALID,120.098,VALID,0,VALID,23.0511,VALID,90,VALID,0,
2014-11-22, 00:49:04,VALID,1009.6,VALID,0,INVALID,120.037,VALID,0,VALID,23.0511,VALID,90,VALID,0,
2014-11-22, 00:50:04,VALID,1009.6,VALID,0,INVALID,120.029,VALID,0,VALID,23.0511,VALID,90,VALID,0,
2014-11-22, 00:51:04,VALID,1009.56,VALID,0,INVALID,120.052,VALID,0,VALID,23.0511,VALID,90,VALID,0,
2014-11-22, 00:52:04,VALID,1009.6,VALID,0,INVALID,120.037,VALID,0,VALID,23.0316,VALID,90,VALID,0,
2014-11-22, 00:53:04,VALID,1009.57,VALID,0,INVALID,120.037,VALID,0.112112,VALID,23.0121,VALID,90,VALID,0,
2014-11-22, 00:54:04,VALID,1009.54,VALID,0,INVALID,119.976,VALID,0,VALID,23.0121,VALID,90,VALID,0,
2014-11-22, 00:55:04,VALID,1009.54,VALID,0,INVALID,119.968,VALID,0,VALID,23.0121,VALID,90,VALID,0,
2014-11-22, 00:56:04,VALID,1009.53,VALID,0,INVALID,119.968,VALID,0,VALID,23.0121,VALID,90,VALID,0,
2014-11-22, 00:57:04,VALID,1009.51,VALID,0,INVALID,119.93,VALID,0,VALID,23.0121,VALID,90,VALID,0,
2014-11-22, 00:58:04,VALID,1009.52,VALID,0,INVALID,119.892,VALID,0.112112,VALID,22.9909,VALID,90,VALID,0,
2014-11-22, 00:59:04,VALID,1009.49,VALID,0,INVALID,119.938,VALID,0,VALID,22.9926,VALID,90,VALID,0,
2014-11-22, 01:00:04,VALID,1009.46,VALID,0,INVALID,119.915,VALID,0,VALID,22.9926,VALID,90,VALID,0,
2014-11-22, 01:01:04,VALID,1009.43,VALID,0,INVALID,119.915,VALID,0,VALID,22.9926,VALID,90,VALID,0,
2014-11-22, 01:02:04,VALID,1009.42,VALID,0,INVALID,119.884,VALID,0,VALID,22.9519,VALID,90,VALID,0,
2014-11-22, 01:03:04,VALID,1009.41,VALID,0,INVALID,119.907,VALID,0,VALID,22.9536,VALID,90,VALID,0,
2014-11-22, 01:04:04,VALID,1009.4,VALID,0,INVALID,119.862,VALID,0,VALID,22.9731,VALID,90,VALID,0,
2014-11-22, 01:05:04,VALID,1009.36,VALID,0,INVALID,119.831,VALID,0,VALID,22.9731,VALID,90,VALID,0,
2014-11-22, 01:06:04,VALID,1009.36,VALID,0,INVALID,119.808,VALID,0,VALID,22.9536,VALID,90,VALID,0,
2014-11-22, 01:07:04,VALID,1009.33,VALID,0,INVALID,119.801,VALID,0,VALID,22.9536,VALID,90,VALID,0,
2014-11-22, 01:08:04,VALID,1009.31,VALID,0,INVALID,119.77,VALID,0,VALID,22.9536,VALID,90,VALID,0,
2014-11-22, 01:09:04,VALID,1009.3,VALID,0,INVALID,119.755,VALID,0.112112,VALID,22.9536,VALID,90,VALID,0,
2014-11-22, 01:10:04,VALID,1009.3,VALID,0,INVALID,119.732,VALID,0,VALID,22.9536,VALID,90,VALID,0,
2014-11-22, 01:11:04,VALID,1009.26,VALID,0,INVALID,119.701,VALID,0,VALID,22.9536,VALID,90,VALID,0,
2014-11-22, 01:12:04,VALID,1009.25,VALID,0,INVALID,119.747,VALID,0,VALID,22.9324,VALID,90,VALID,0,
2014-11-22, 01:13:04,VALID,1009.23,VALID,0,INVALID,119.701,VALID,0,VALID,22.9342,VALID,90,VALID,0,
2014-11-22, 01:14:04,VALID,1009.23,VALID,0,INVALID,119.717,VALID,0,VALID,22.9342,VALID,90,VALID,0,
2014-11-22, 01:15:04,VALID,1009.23,VALID,0,INVALID,119.747,VALID,0,VALID,22.9147,VALID,90,VALID,0,
2014-11-22, 01:16:04,VALID,1009.25,VALID,0,INVALID,119.694,VALID,0,VALID,22.9342,VALID,90,VALID,0,
2014-11-22, 01:17:04,VALID,1009.23,VALID,0,INVALID,119.633,VALID,0,VALID,22.9536,VALID,90,VALID,0,
2014-11-22, 01:18:04,VALID,1009.28,VALID,0,INVALID,119.618,VALID,0,VALID,22.9536,VALID,90,VALID,0,
2014-11-22, 01:19:04,VALID,1009.26,VALID,0,INVALID,119.595,VALID,0,VALID,22.9536,VALID,90,VALID,0,
2014-11-22, 01:20:04,VALID,1009.27,VALID,0,INVALID,119.579,VALID,0,VALID,22.9536,VALID,90,VALID,0,
2014-11-22, 01:21:04,VALID,1009.3,VALID,0,INVALID,119.572,VALID,0,VALID,22.9536,VALID,90,VALID,0,
2014-11-22, 01:22:04,VALID,1009.28,VALID,0,INVALID,119.587,VALID,0,VALID,22.9342,VALID,90,VALID,0,
2014-11-22, 01:23:04,VALID,1009.29,VALID,0,INVALID,119.595,VALID,0,VALID,22.9342,VALID,90,VALID,0,
2014-11-22, 01:24:04,VALID,1009.26,VALID,0,INVALID,119.549,VALID,0,VALID,22.9342,VALID,90,VALID,0,
2014-11-22, 01:25:04,VALID,1009.22,VALID,0,INVALID,119.518,VALID,0,VALID,22.9342,VALID,90,VALID,0,
2014-11-22, 01:26:04,VALID,1009.21,VALID,0,INVALID,119.534,VALID,0,VALID,22.9147,VALID,90,VALID,0,
2014-11-22, 01:27:04,VALID,1009.19,VALID,0,INVALID,119.511,VALID,0,VALID,22.9342,VALID,90,VALID,0,
2014-11-22, 01:28:04,VALID,1009.17,VALID,0,INVALID,119.457,VALID,0,VALID,22.9342,VALID,90,VALID,0,
2014-11-22, 01:29:04,VALID,1009.19,VALID,0,INVALID,119.488,VALID,0,VALID,22.9147,VALID,90,VALID,0,
2014-11-22, 01:30:04,VALID,1009.19,VALID,0,INVALID,119.503,VALID,0,VALID,22.9147,VALID,90,VALID,0,
2014-11-22, 01:31:04,VALID,1009.17,VALID,0,INVALID,119.511,VALID,0,VALID,22.8935,VALID,90,VALID,0,
2014-11-22, 01:32:04,VALID,1009.16,VALID,0,INVALID,119.473,VALID,0,VALID,22.9147,VALID,90,VALID,0,
2014-11-22, 01:33:04,VALID,1009.16,VALID,0,INVALID,119.419,VALID,0.112112,VALID,22.9342,VALID,90,VALID,0,
2014-11-22, 01:34:04,VALID,1009.13,VALID,0,INVALID,119.404,VALID,0,VALID,22.9342,VALID,90,VALID,0,
2014-11-22, 01:35:04,VALID,1009.15,VALID,0,INVALID,119.381,VALID,0,VALID,22.9342,VALID,90,VALID,0,
2014-11-22, 01:36:04,VALID,1009.12,VALID,0,INVALID,119.313,VALID,0.112112,VALID,22.9536,VALID,90,VALID,0,
2014-11-22, 01:37:04,VALID,1009.12,VALID,0,INVALID,119.267,VALID,0,VALID,22.9536,VALID,90,VALID,0,
2014-11-22, 01:38:04,VALID,1009.1,VALID,0,INVALID,119.274,VALID,0,VALID,22.9536,VALID,90,VALID,0,
2014-11-22, 01:39:04,VALID,1009.09,VALID,0,INVALID,119.297,VALID,0,VALID,22.9342,VALID,90,VALID,0,
2014-11-22, 01:40:04,VALID,1009.05,VALID,0,INVALID,119.32,VALID,0,VALID,22.9342,VALID,90,VALID,0,
2014-11-22, 01:41:04,VALID,1009.05,VALID,0,INVALID,119.267,VALID,0,VALID,22.9342,VALID,90,VALID,0,
2014-11-22, 01:42:04,VALID,1009.03,VALID,0,INVALID,119.297,VALID,0,VALID,22.9342,VALID,90,VALID,0,
2014-11-22, 01:43:04,VALID,1008.99,VALID,0,INVALID,119.274,VALID,0,VALID,22.9342,VALID,90,VALID,0,
2014-11-22, 01:44:04,VALID,1008.99,VALID,0,INVALID,119.29,VALID,0,VALID,22.9342,VALID,90,VALID,0,
2014-11-22, 01:45:04,VALID,1008.97,VALID,0,INVALID,119.236,VALID,0,VALID,22.9324,VALID,90,VALID,0,
2014-11-22, 01:46:04,VALID,1008.95,VALID,0,INVALID,119.221,VALID,0,VALID,22.9342,VALID,90,VALID,0,
2014-11-22, 01:47:04,VALID,1008.96,VALID,0,INVALID,119.213,VALID,0,VALID,22.9536,VALID,90,VALID,0,
2014-11-22, 01:48:04,VALID,1008.97,VALID,0,INVALID,119.206,VALID,0,VALID,22.9324,VALID,90,VALID,0,
2014-11-22, 01:49:04,VALID,1008.97,VALID,0,INVALID,119.175,VALID,0,VALID,22.9536,VALID,90,VALID,0,
2014-11-22, 01:50:04,VALID,1008.95,VALID,0,INVALID,119.137,VALID,0,VALID,22.9536,VALID,90,VALID,0,
2014-11-22, 01:51:04,VALID,1008.95,VALID,0,INVALID,119.183,VALID,0,VALID,22.9536,VALID,90,VALID,0,
2014-11-22, 01:52:04,VALID,1008.95,VALID,0,INVALID,119.16,VALID,0,VALID,22.9342,VALID,90,VALID,0,
2014-11-22, 01:53:04,VALID,1008.96,VALID,0,INVALID,119.099,VALID,0.112112,VALID,22.9324,VALID,90,VALID,0,
2014-11-22, 01:54:04,VALID,1008.94,VALID,0,INVALID,119.069,VALID,0,VALID,22.9342,VALID,90,VALID,0,
2014-11-22, 01:55:04,VALID,1008.94,VALID,0,INVALID,119.091,VALID,0,VALID,22.9342,VALID,90,VALID,0,
2014-11-22, 01:56:04,VALID,1008.93,VALID,0,INVALID,119.053,VALID,0,VALID,22.9129,VALID,90,VALID,0,
2014-11-22, 01:57:04,VALID,1008.93,VALID,0,INVALID,119.122,VALID,0,VALID,22.9147,VALID,90,VALID,0,
2014-11-22, 01:58:04,VALID,1008.9,VALID,0,INVALID,119.137,VALID,0,VALID,22.8935,VALID,90,VALID,0,
2014-11-22, 01:59:04,VALID,1008.9,VALID,0,INVALID,119.168,VALID,0,VALID,22.8952,VALID,90,VALID,0,
2014-11-22, 02:00:04,VALID,1008.91,VALID,0,INVALID,119.16,VALID,0,VALID,22.8952,VALID,90,VALID,0,
2014-11-22, 02:01:04,VALID,1008.9,VALID,0,INVALID,119.122,VALID,0,VALID,22.9342,VALID,90,VALID,0,
2014-11-22, 02:02:04,VALID,1008.89,VALID,0,INVALID,119.03,VALID,0,VALID,22.9342,VALID,90,VALID,0,
2014-11-22, 02:03:04,VALID,1008.88,VALID,0,INVALID,119.046,VALID,0,VALID,22.9342,VALID,90,VALID,0,
2014-11-22, 02:04:04,VALID,1008.88,VALID,0,INVALID,119.038,VALID,0,VALID,22.9147,VALID,90,VALID,0,
2014-11-22, 02:05:04,VALID,1008.9,VALID,0,INVALID,119.053,VALID,0,VALID,22.9147,VALID,90,VALID,0,
2014-11-22, 02:06:04,VALID,1008.85,VALID,0,INVALID,119.023,VALID,0,VALID,22.9147,VALID,90,VALID,0,
2014-11-22, 02:07:04,VALID,1008.86,VALID,0,INVALID,118.962,VALID,0,VALID,22.9342,VALID,90,VALID,0,
2014-11-22, 02:08:04,VALID,1008.84,VALID,0,INVALID,118.939,VALID,0,VALID,22.9342,VALID,90,VALID,0,
2014-11-22, 02:09:04,VALID,1008.84,VALID,0,INVALID,118.924,VALID,0,VALID,22.9342,VALID,90,VALID,0,
2014-11-22, 02:10:04,VALID,1008.82,VALID,0,INVALID,118.977,VALID,0,VALID,22.9147,VALID,90,VALID,0,
2014-11-22, 02:11:04,VALID,1008.84,VALID,0,INVALID,118.977,VALID,0,VALID,22.9147,VALID,90,VALID,0,
2014-11-22, 02:12:04,VALID,1008.79,VALID,0,INVALID,118.985,VALID,0,VALID,22.8952,VALID,90,VALID,0,
2014-11-22, 02:13:04,VALID,1008.81,VALID,0,INVALID,118.969,VALID,0,VALID,22.8952,VALID,90,VALID,0,
2014-11-22, 02:14:04,VALID,1008.79,VALID,0,INVALID,118.931,VALID,0,VALID,22.8757,VALID,90,VALID,0,
2014-11-22, 02:15:04,VALID,1008.8,VALID,0,INVALID,118.947,VALID,0,VALID,22.8757,VALID,90,VALID,0,
2014-11-22, 02:16:04,VALID,1008.81,VALID,0,INVALID,118.924,VALID,0,VALID,22.8757,VALID,90,VALID,0,
2014-11-22, 02:17:04,VALID,1008.81,VALID,0,INVALID,118.908,VALID,0,VALID,22.8969,VALID,90,VALID,0,
2014-11-22, 02:18:04,VALID,1008.78,VALID,0,INVALID,118.885,VALID,0,VALID,22.8775,VALID,90,VALID,0,
2014-11-22, 02:19:04,VALID,1008.79,VALID,0,INVALID,118.878,VALID,0,VALID,22.8775,VALID,90,VALID,0,
2014-11-22, 02:20:04,VALID,1008.77,VALID,0,INVALID,118.885,VALID,0,VALID,22.8368,VALID,90,VALID,0,
2014-11-22, 02:21:04,VALID,1008.77,VALID,0,INVALID,118.87,VALID,0,VALID,22.858,VALID,90,VALID,0,
2014-11-22, 02:22:04,VALID,1008.78,VALID,0,INVALID,118.824,VALID,0,VALID,22.8368,VALID,90,VALID,0,
2014-11-22, 02:23:04,VALID,1008.77,VALID,0,INVALID,118.832,VALID,0.112112,VALID,22.858,VALID,90,VALID,0,
2014-11-22, 02:24:04,VALID,1008.76,VALID,0,INVALID,118.786,VALID,0,VALID,22.8368,VALID,90,VALID,0,
2014-11-22, 02:25:04,VALID,1008.77,VALID,0,INVALID,118.756,VALID,0,VALID,22.8368,VALID,90,VALID,0,
2014-11-22, 02:26:04,VALID,1008.75,VALID,0,INVALID,118.702,VALID,0,VALID,22.8562,VALID,90,VALID,0,
2014-11-22, 02:27:04,VALID,1008.73,VALID,0,INVALID,118.657,VALID,0,VALID,22.8562,VALID,90,VALID,0,
2014-11-22, 02:28:04,VALID,1008.74,VALID,0,INVALID,118.634,VALID,0,VALID,22.8757,VALID,90,VALID,0,
2014-11-22, 02:29:04,VALID,1008.73,VALID,0,INVALID,118.649,VALID,0,VALID,22.8757,VALID,90,VALID,0,
2014-11-22, 02:30:04,VALID,1008.71,VALID,0,INVALID,118.619,VALID,0,VALID,22.835,VALID,90,VALID,0,
2014-11-22, 02:31:04,VALID,1008.67,VALID,0,INVALID,118.611,VALID,0,VALID,22.8775,VALID,90,VALID,0,
2014-11-22, 02:32:04,VALID,1008.64,VALID,0,INVALID,118.611,VALID,0,VALID,22.8757,VALID,90,VALID,0,
2014-11-22, 02:33:04,VALID,1008.61,VALID,0,INVALID,118.619,VALID,0,VALID,22.8969,VALID,90,VALID,0,
2014-11-22, 02:34:04,VALID,1008.58,VALID,0,INVALID,118.611,VALID,0,VALID,22.8562,VALID,90,VALID,0,
2014-11-22, 02:35:04,VALID,1008.53,VALID,0,INVALID,118.565,VALID,0,VALID,22.8952,VALID,90,VALID,0,
2014-11-22, 02:36:04,VALID,1008.5,VALID,0,INVALID,118.481,VALID,0,VALID,22.8757,VALID,90,VALID,0,
2014-11-22, 02:37:04,VALID,1008.48,VALID,0,INVALID,118.466,VALID,0,VALID,22.8952,VALID,90,VALID,0,
2014-11-22, 02:38:04,VALID,1008.46,VALID,0,INVALID,118.451,VALID,0,VALID,22.8952,VALID,90,VALID,0,
2014-11-22, 02:39:04,VALID,1008.45,VALID,0,INVALID,118.451,VALID,0,VALID,22.9147,VALID,90,VALID,0,
2014-11-22, 02:40:04,VALID,1008.43,VALID,0,INVALID,118.405,VALID,0,VALID,22.9554,VALID,90,VALID,0,
2014-11-22, 02:41:04,VALID,1008.43,VALID,0,INVALID,118.413,VALID,0,VALID,22.9342,VALID,90,VALID,0,
2014-11-22, 02:42:04,VALID,1008.44,VALID,0,INVALID,118.375,VALID,0,VALID,22.9731,VALID,90,VALID,0,
2014-11-22, 02:43:04,VALID,1008.44,VALID,0,INVALID,118.298,VALID,0,VALID,22.9926,VALID,90,VALID,0,
2014-11-22, 02:44:04,VALID,1008.45,VALID,0,INVALID,118.367,VALID,0,VALID,22.9731,VALID,90,VALID,0,
2014-11-22, 02:45:04,VALID,1008.46,VALID,0,INVALID,118.344,VALID,0,VALID,22.9714,VALID,90,VALID,0,
2014-11-22, 02:46:04,VALID,1008.45,VALID,0,INVALID,118.321,VALID,0,VALID,22.9926,VALID,90,VALID,0,
2014-11-22, 02:47:04,VALID,1008.43,VALID,0,INVALID,118.314,VALID,0.112112,VALID,22.9926,VALID,90,VALID,0,
2014-11-22, 02:48:04,VALID,1008.44,VALID,0,INVALID,118.291,VALID,0,VALID,22.9909,VALID,90,VALID,0,
2014-11-22, 02:49:04,VALID,1008.39,VALID,0,INVALID,118.253,VALID,0,VALID,22.9909,VALID,90,VALID,0,
2014-11-22, 02:50:04,VALID,1008.43,VALID,0,INVALID,118.26,VALID,0,VALID,23.0121,VALID,90,VALID,0,
2014-11-22, 02:51:04,VALID,1008.43,VALID,0,INVALID,118.237,VALID,0,VALID,23.0121,VALID,90,VALID,0,
2014-11-22, 02:52:04,VALID,1008.42,VALID,0,INVALID,118.245,VALID,0,VALID,23.0316,VALID,90,VALID,0,
2014-11-22, 02:53:04,VALID,1008.4,VALID,0,INVALID,118.176,VALID,0,VALID,23.0511,VALID,90,VALID,0,
2014-11-22, 02:54:04,VALID,1008.39,VALID,0,INVALID,118.207,VALID,0,VALID,23.0316,VALID,90,VALID,0,
2014-11-22, 02:55:04,VALID,1008.39,VALID,0,INVALID,118.298,VALID,0,VALID,23.0121,VALID,90,VALID,0,
2014-11-22, 02:56:04,VALID,1008.4,VALID,0,INVALID,118.275,VALID,0,VALID,23.0121,VALID,90,VALID,0,
2014-11-22, 02:57:04,VALID,1008.37,VALID,0,INVALID,118.222,VALID,0,VALID,22.9926,VALID,90,VALID,0,
2014-11-22, 02:58:04,VALID,1008.37,VALID,0,INVALID,118.245,VALID,0,VALID,22.9926,VALID,90,VALID,0,
2014-11-22, 02:59:04,VALID,1008.37,VALID,0,INVALID,118.23,VALID,0,VALID,22.9926,VALID,90,VALID,0,
2014-11-22, 03:00:04,VALID,1008.35,VALID,0,INVALID,118.222,VALID,0,VALID,22.9536,VALID,90,VALID,0,
2014-11-22, 03:01:04,VALID,1008.35,VALID,0,INVALID,118.207,VALID,0,VALID,22.9926,VALID,90,VALID,0,
2014-11-22, 03:02:04,VALID,1008.35,VALID,0,INVALID,118.138,VALID,0,VALID,22.9909,VALID,90,VALID,0,
2014-11-22, 03:03:04,VALID,1008.33,VALID,0,INVALID,118.108,VALID,0,VALID,22.9926,VALID,90,VALID,0,
2014-11-22, 03:04:04,VALID,1008.3,VALID,0,INVALID,118.085,VALID,0,VALID,23.0121,VALID,90,VALID,0,
2014-11-22, 03:05:04,VALID,1008.32,VALID,0,INVALID,118.062,VALID,0,VALID,23.0316,VALID,90,VALID,0,
2014-11-22, 03:06:04,VALID,1008.32,VALID,0,INVALID,118.039,VALID,0,VALID,23.0316,VALID,90,VALID,0,
2014-11-22, 03:07:04,VALID,1008.32,VALID,0,INVALID,117.97,VALID,0,VALID,23.0298,VALID,90,VALID,0,
2014-11-22, 03:08:04,VALID,1008.33,VALID,0,INVALID,118.077,VALID,0,VALID,23.0316,VALID,90,VALID,0,
2014-11-22, 03:09:04,VALID,1008.34,VALID,0,INVALID,118.085,VALID,0,VALID,23.0121,VALID,90,VALID,0,
2014-11-22, 03:10:04,VALID,1008.35,VALID,0,INVALID,118.031,VALID,0,VALID,23.0316,VALID,90,VALID,0,
2014-11-22, 03:11:04,VALID,1008.32,VALID,0,INVALID,117.917,VALID,0,VALID,23.0511,VALID,90,VALID,0,
2014-11-22, 03:12:04,VALID,1008.33,VALID,0,INVALID,117.993,VALID,0,VALID,23.0316,VALID,90,VALID,0,
2014-11-22, 03:13:04,VALID,1008.32,VALID,0,INVALID,117.978,VALID,0,VALID,23.0316,VALID,90,VALID,0,
2014-11-22, 03:14:04,VALID,1008.31,VALID,0,INVALID,117.887,VALID,0,VALID,23.0723,VALID,90,VALID,0,
2014-11-22, 03:15:04,VALID,1008.34,VALID,0,INVALID,118.07,VALID,0,VALID,23.0121,VALID,90,VALID,0,
2014-11-22, 03:16:04,VALID,1008.31,VALID,0,INVALID,118.039,VALID,0,VALID,22.9926,VALID,90,VALID,0,
2014-11-22, 03:17:04,VALID,1008.31,VALID,0,INVALID,118.054,VALID,0,VALID,22.9926,VALID,90,VALID,0,
2014-11-22, 03:18:04,VALID,1008.32,VALID,0,INVALID,117.986,VALID,0,VALID,22.9926,VALID,90,VALID,0,
2014-11-22, 03:19:04,VALID,1008.31,VALID,0,INVALID,117.955,VALID,0,VALID,23.0138,VALID,90,VALID,0,
2014-11-22, 03:20:04,VALID,1008.33,VALID,0,INVALID,117.925,VALID,0,VALID,23.0121,VALID,90,VALID,0,
2014-11-22, 03:21:04,VALID,1008.33,VALID,0,INVALID,117.917,VALID,0,VALID,22.9909,VALID,90,VALID,0,
2014-11-22, 03:22:04,VALID,1008.32,VALID,0,INVALID,117.887,VALID,0,VALID,23.0121,VALID,90,VALID,0,
2014-11-22, 03:23:04,VALID,1008.33,VALID,0,INVALID,117.963,VALID,0.112112,VALID,22.9926,VALID,90,VALID,0,
2014-11-22, 03:24:04,VALID,1008.33,VALID,0,INVALID,117.925,VALID,0,VALID,22.9926,VALID,90,VALID,0,
2014-11-22, 03:25:04,VALID,1008.36,VALID,0,INVALID,117.856,VALID,0,VALID,22.9714,VALID,90,VALID,0,
2014-11-22, 03:26:04,VALID,1008.36,VALID,0,INVALID,117.879,VALID,0,VALID,22.9731,VALID,90,VALID,0,
2014-11-22, 03:27:04,VALID,1008.36,VALID,0,INVALID,117.894,VALID,0,VALID,22.9731,VALID,90,VALID,0,
2014-11-22, 03:28:04,VALID,1008.37,VALID,0,INVALID,117.955,VALID,0,VALID,22.9536,VALID,90,VALID,0,
2014-11-22, 03:29:04,VALID,1008.34,VALID,0,INVALID,117.909,VALID,0,VALID,22.9342,VALID,90,VALID,0,
2014-11-22, 03:30:04,VALID,1008.37,VALID,0,INVALID,117.932,VALID,0,VALID,22.9342,VALID,90,VALID,0,
2014-11-22, 03:31:04,VALID,1008.37,VALID,0,INVALID,117.94,VALID,0,VALID,22.9342,VALID,90,VALID,0,
2014-11-22, 03:32:04,VALID,1008.39,VALID,0,INVALID,117.925,VALID,0,VALID,22.9147,VALID,90,VALID,0,
2014-11-22, 03:33:04,VALID,1008.38,VALID,0,INVALID,117.856,VALID,0,VALID,22.9147,VALID,90,VALID,0,
2014-11-22, 03:34:04,VALID,1008.37,VALID,0,INVALID,117.902,VALID,0,VALID,22.874,VALID,90,VALID,0,
2014-11-22, 03:35:04,VALID,1008.36,VALID,0,INVALID,117.894,VALID,0,VALID,22.8757,VALID,90,VALID,0,
2014-11-22, 03:36:04,VALID,1008.34,VALID,0,INVALID,117.871,VALID,0,VALID,22.8757,VALID,90,VALID,0,
2014-11-22, 03:37:04,VALID,1008.34,VALID,0,INVALID,117.795,VALID,0,VALID,22.8952,VALID,90,VALID,0,
2014-11-22, 03:38:04,VALID,1008.36,VALID,0,INVALID,117.787,VALID,0,VALID,22.874,VALID,90,VALID,0,
2014-11-22, 03:39:04,VALID,1008.35,VALID,0,INVALID,117.719,VALID,0,VALID,22.874,VALID,90,VALID,0,
2014-11-22, 03:40:04,VALID,1008.37,VALID,0,INVALID,117.688,VALID,0,VALID,22.8952,VALID,90,VALID,0,
2014-11-22, 03:41:04,VALID,1008.37,VALID,0,INVALID,117.704,VALID,0,VALID,22.9147,VALID,90,VALID,0,
2014-11-22, 03:42:04,VALID,1008.36,VALID,0,INVALID,117.688,VALID,0.112112,VALID,22.8935,VALID,90,VALID,0,
2014-11-22, 03:43:04,VALID,1008.34,VALID,0,INVALID,117.627,VALID,0,VALID,22.9342,VALID,90,VALID,0,
2014-11-22, 03:44:04,VALID,1008.36,VALID,0,INVALID,117.574,VALID,0,VALID,22.9129,VALID,90,VALID,0,
2014-11-22, 03:45:04,VALID,1008.35,VALID,0,INVALID,117.627,VALID,0,VALID,22.9147,VALID,90,VALID,0,
2014-11-22, 03:46:04,VALID,1008.34,VALID,0,INVALID,117.566,VALID,0,VALID,22.9342,VALID,90,VALID,0,
2014-11-22, 03:47:04,VALID,1008.33,VALID,0,INVALID,117.612,VALID,0,VALID,22.9147,VALID,90,VALID,0,
2014-11-22, 03:48:04,VALID,1008.37,VALID,0,INVALID,117.658,VALID,0,VALID,22.9147,VALID,90,VALID,0,
2014-11-22, 03:49:04,VALID,1008.34,VALID,0,INVALID,117.612,VALID,0,VALID,22.9147,VALID,90,VALID,0,
2014-11-22, 03:50:04,VALID,1008.32,VALID,0,INVALID,117.574,VALID,0,VALID,22.9359,VALID,90,VALID,0,
2014-11-22, 03:51:04,VALID,1008.3,VALID,0,INVALID,117.543,VALID,0,VALID,22.9147,VALID,90,VALID,0,
2014-11-22, 03:52:04,VALID,1008.3,VALID,0,INVALID,117.597,VALID,0,VALID,22.9147,VALID,90,VALID,0,
2014-11-22, 03:53:04,VALID,1008.28,VALID,0,INVALID,117.566,VALID,0,VALID,22.8952,VALID,90,VALID,0,
2014-11-22, 03:54:04,VALID,1008.29,VALID,0,INVALID,117.681,VALID,0,VALID,22.8952,VALID,90,VALID,0,
2014-11-22, 03:55:04,VALID,1008.29,VALID,0,INVALID,117.589,VALID,0.112112,VALID,22.8952,VALID,90,VALID,0,
2014-11-22, 03:56:04,VALID,1008.29,VALID,0,INVALID,117.604,VALID,0,VALID,22.8969,VALID,90,VALID,0,